#timestamp,LO_Frequency,Hit,StdDev 
1585253575.5,286047013.0,P
1585253595.3,286047010.9,P
1585253615.2,286047013.9,P
1585253635.0,286047011.4,Y
1585253635.9,286047011.4,P
1585253655.8,286046996.9,P
1585253675.6,286046997.1,N
1585253695.4,286046995.4,N
1585253715.3,286046995.3,N
1585253735.1,286046995.1,N
1585253755.8,286046995.4,N
1585253775.7,286046997.9,N
1585253795.5,286046997.2,N
1585253815.4,286046997.4,N
1585253835.2,286046995.4,N
1585253855.0,286046996.9,N
1585253855.9,286046996.9,N
1585253875.8,286046996.5,N
1585253895.6,286046996.6,N
1585253915.4,286046997.1,N
1585253935.3,286046997.8,N
1585253955.1,286046999.3,N
1585253975.9,286046996.8,N
1585253995.7,286046999.4,N
1585254015.5,286046999.2,N
1585254035.4,286046999.1,N
1585254055.2,286046999.0,N
1585254075.0,286046999.0,N
1585254075.9,286046999.0,N
1585254095.8,286046999.4,N
1585254115.6,286047000.8,N
1585254135.5,286046998.6,N
1585254155.3,286046999.3,N
1585254175.1,286046998.5,N
1585254195.9,286047001.0,N
1585254215.7,286047000.4,N
1585254235.5,286047001.1,N
1585254255.4,286046999.9,N
1585254275.2,286047002.3,N
1585254295.1,286047002.7,N
1585254296.0,286047002.7,N
1585254315.8,286047000.2,N
1585254335.6,286047001.9,N
1585254355.5,286047002.6,N
1585254375.3,286047002.7,N
1585254395.1,286047002.1,N
1585254415.9,286047001.6,N
1585254435.7,286047004.3,N
1585254455.6,286047004.2,N
1585254475.4,286047001.4,N
1585254495.2,286047003.5,N
1585254515.1,286047003.4,N
1585254516.0,286047003.4,N
1585254535.8,286047003.9,N
1585254555.6,286047001.5,N
1585254575.5,286047004.2,N
1585254595.3,286047003.7,N
1585254615.2,286047003.5,N
1585254635.9,286047003.6,N
1585254655.7,286047003.3,N
1585254675.6,286047003.1,N
1585254695.4,286047003.4,N
1585254715.2,286047005.6,Y
1585254735.1,286047004.4,P
1585254736.0,286047004.4,P
1585254755.8,286047004.2,P
1585254775.7,286047001.9,N
1585254795.5,286047003.6,Y
1585254815.3,286047000.8,P
1585254835.2,286047000.5,N
1585254855.0,286046999.9,N
1585254855.9,286046999.9,N
1585254875.8,286047000.6,N
1585254895.6,286047000.2,N
1585254915.4,286047000.6,N
1585254935.3,286047002.5,N
1585254955.1,286047002.4,N
1585254975.8,286047002.0,N
1585254995.7,286047002.3,N
1585255015.5,286047002.0,N
1585255035.4,286047001.6,N
1585255055.2,286047002.0,N
1585255075.0,286047002.0,N
1585255075.9,286047002.0,N
1585255095.8,286047002.1,N
1585255115.6,286047002.6,N
1585255135.4,286047002.1,N
1585255155.3,286047002.1,N
1585255175.1,286047000.1,N
1585255195.9,286047002.2,N
1585255215.7,286047001.7,N
1585255235.5,286047002.1,N
1585255255.4,286047002.4,N
1585255275.2,286047003.2,Y
1585255295.1,286047001.7,P
1585255296.0,286047001.7,P
1585255315.8,286047002.6,P
1585255335.6,286047001.3,Y
1585255355.5,286047000.4,P
1585255375.3,286047000.7,N
1585255395.1,286047001.0,N
1585255415.9,286047001.1,N
1585255435.7,286047000.6,N
1585255455.6,286047001.2,N
1585255475.4,286047000.3,N
1585255495.2,286047000.4,N
1585255515.1,286047000.2,N
1585255516.0,286047000.2,N
1585255535.8,286046999.8,N
1585255555.6,286047002.8,Y
1585255575.5,286047002.8,P
1585255595.3,286047002.4,N
1585255615.2,286047000.3,N
1585255635.9,286047000.2,N
1585255655.7,286047002.3,N
1585255675.6,286047001.6,N
1585255695.4,286047002.8,N
1585255715.2,286047002.3,N
1585255735.1,286047002.6,N
1585255736.0,286047002.6,N
1585255755.8,286047001.3,N
1585255775.7,286047000.1,N
1585255795.5,286047002.3,N
1585255815.3,286046999.8,N
1585255835.2,286047002.1,N
1585255855.0,286047002.1,N
1585255855.9,286047002.1,N
1585255875.7,286046999.9,N
1585255895.6,286047002.5,N
1585255915.4,286047002.4,N
1585255935.3,286047003.9,Y
1585255955.1,286047002.5,P
1585255975.8,286047001.5,P
1585255995.7,286047001.9,P
1585256015.5,286047001.8,Y
1585256035.4,286046999.8,P
1585256055.2,286047000.3,N
1585256075.0,286047002.8,P
1585256075.9,286047002.8,N
1585256095.8,286047000.1,N
1585256115.6,286046999.9,N
1585256135.4,286047000.0,N
1585256155.3,286047000.0,N
1585256175.1,286046999.9,N
1585256195.9,286047000.9,N
1585256215.7,286047000.1,N
1585256235.5,286047001.0,N
1585256255.4,286047000.3,N
1585256275.2,286047001.9,N
1585256295.0,286047002.9,N
1585256295